Regional Weather Roundup
Issued by NWS

Home | Current Version | Previous Version | Text Only | Print | Product List | Glossary On
Versions: 1 2 3 4 5 6 7 8 9 10 11 12 13 14 15 16 17 18 19 20 21 22 23 24 25 26 27 28 29 30 31 32 33 34 35 36 37 38 39 40 41 42 43 44 45 46 47 48 49 50
000
ASUS43 KMPX 200210
RWRMN
WEATHER ROUNDUP FOR MINNESOTA
NATIONAL WEATHER SERVICE TWIN CITIES/CHANHASSEN MN
900 PM CDT SUN OCT 19 2014


NOTE: "FAIR" INDICATES FEW OR NO CLOUDS BELOW 12,000 FEET WITH NO
SIGNIFICANT WEATHER AND/OR OBSTRUCTIONS TO VISIBILITY. N/A MEANS
CURRENT SKY AND/OR WEATHER CONDITIONS ARE NOT AVAILABLE.

MNZ060>063-068>070-200300-
   Twin Cities Metro

CITY           SKY/WX    TMP DP  RH WIND       PRES   REMARKS
TWIN CITIES    CLEAR     59  43  55 NW10      29.81R
ST PAUL        CLEAR     60  43  53 NW9G20    29.81R
CRYSTAL        CLEAR     59  42  53 W7        29.81R
BLAINE         CLEAR     59  45  58 W9        29.80S
LAKEVILLE      CLEAR     55  43  62 W7        29.81S
EDEN PRAIRIE   CLEAR     61  43  51 NW9       29.81R
SOUTH ST PAUL  CLEAR     62  42  48 NW10      29.80R
LAKE ELMO      FAIR      55  45  67 W8        29.81R
$$
MNZ001>005-007-008-013>017-022>024-027-028-200300-
   Northwest Minnesota

CITY           SKY/WX    TMP DP  RH WIND       PRES   REMARKS
BEMIDJI        CLEAR     48  39  72 W7        29.87R
HALLOCK        CLEAR     54  39  58 N7        29.88R
ROSEAU         CLEAR     52  43  71 NW5       29.85S
WARROAD        CLEAR     45  41  87 NW3       29.86S
THIEF RVR FALL MOCLDY    46  39  76 W5        29.88R
CROOKSTON      CLEAR     48  39  71 W3        29.89R
FOSSTON        CLEAR     43  36  75 CALM      29.89S
DETROIT LAKES  CLEAR     50  41  71 W5        29.90S
MOORHEAD       CLEAR     50  43  76 W3        29.91S
PARK RAPIDS    CLEAR     46  40  79 NW7       29.87R
MAHNOMEN       FAIR      49  40  71 W3        29.88S
$$
MNZ006-009>011-018-025>026-200300-
   North Central Minnesota

CITY           SKY/WX    TMP DP  RH WIND       PRES   REMARKS
BAUDETTE       MOCLDY    50  42  74 NW7       29.85
FLAG ISLAND    CLOUDY    52  45  76 NW12      29.83S
INTL FALLS     MOCLDY    44  39  82 W5        29.81R
WASKISH        CLEAR     48  45  87 CALM      29.86R
BIG FORK       CLEAR     52  41  66 CALM      29.84R
LONGVILLE      CLEAR     54  43  66 NW5       29.85R
GRAND RAPIDS   CLEAR     54  41  62 NW12      29.83R
CRANE LAKE     CLOUDY    48  43  81 CALM      29.82R
ORR            CLOUDY    46  39  76 CALM      29.79S
COOK           CLEAR     46  41  81 CALM      29.81S
WALKER         FAIR      49  41  73 W5        29.86R
$$
MNZ012-019>021-037-200300-
   Northeast Minnesota

CITY           SKY/WX    TMP DP  RH WIND       PRES   REMARKS
DULUTH         MOCLDY    55  41  59 NW12      29.78R
ELY            CLOUDY    52  41  66 NW8G16    29.79R
HIBBING        CLEAR     50  40  68 N9        29.80R
EVELETH        CLEAR     52  41  66 N8        29.81R
DULUTH HARBOR  PTCLDY    57  46  67 NW9       29.77R
TWO HARBORS    PTCLDY    57  34  41 NW7       29.74R
SILVER BAY     CLEAR     52  43  71 CALM      29.74R
GRAND MARAIS     N/A     46  42  86 CALM      29.74R
G MARAIS ARPRT CLOUDY    48  39  71 W6        29.74R
$$
MNZ029>031-032-039>041-046>048-054>057-064-200300-
   West Central Minnesota

CITY           SKY/WX    TMP DP  RH WIND       PRES   REMARKS
FERGUS FALLS   CLEAR     54  37  54 CALM      29.91S
WHEATON        CLEAR     52  37  58 NW5       29.94R
MORRIS         CLEAR     54  39  58 N8        29.90R
ALEXANDRIA     CLEAR     57  41  55 NW10      29.91R
ELBOW LAKE     FAIR      52  40  64 N6        29.91R
WADENA         CLEAR     48  41  76 NW5       29.88R
GLENWOOD       CLEAR     52  43  71 NW8       29.91R
APPLETON       CLEAR     54  39  58 N7        29.91R
BENSON         CLEAR     54  41  62 N6        29.90R
ORTONVILLE     CLEAR     55  37  50 NW6       29.92R
MADISON        CLEAR     57  39  51 NW9       29.92R
WILLMAR        FAIR      57  39  51 N13       29.90R
$$
MNZ033>034-036-042>043-049>051-058-059-200300-
   Central Minnesota

CITY           SKY/WX    TMP DP  RH WIND       PRES   REMARKS
ST CLOUD       CLEAR     56  42  59 NW10      29.84R
SAUK CENTRE    FAIR      55  41  60 NW12      29.89R
PAYNESVILLE    CLEAR     54  40  58 W9        29.89R
AITKIN         CLEAR     57  45  62 NW5       29.82R
PINE RIVER     CLEAR     55  45  67 NW5       29.89R
BRAINERD       CLEAR     55  42  61 NW10      29.85R
STAPLES        CLEAR     52  41  66 NW6       29.87R
LONG PRAIRIE   FAIR      54  41  62 W10       29.88S
LITTLE FALLS   CLEAR     55  41  58 NW8       29.86R
LITCHFIELD     CLEAR     57  41  54 NW10      29.87R
BUFFALO        CLEAR     59  41  52 NW10      29.84R
MAPLE LAKE     CLEAR     59  44  56 NW12      29.85R
$$
MNZ037-044-045-052-053-200300-
   East Central Minnesota

CITY           SKY/WX    TMP DP  RH WIND       PRES   REMARKS
PRINCETON      CLEAR     57  43  58 W8        29.83R
MORA           CLEAR     54  39  58 NW7       29.83R
CAMBRIDGE      CLEAR     61  45  55 W7        29.79R
RUSH CITY      MOCLDY    53  42  66 NW5       29.80R
MOOSE LAKE     CLEAR     54  41  62 NW7       29.79R
HINCKLEY       FAIR      55  43  62 NW10      29.80R
CLOQUET        PTCLDY    54  41  62 NW8       29.79R
MCGREGOR       MOCLDY    54  43  66 NW6       29.82R
$$
MNZ071>073-080-081-089-090-097-098-200300-
   Southwest Minnesota

CITY           SKY/WX    TMP DP  RH WIND       PRES   REMARKS
MONTEVIDEO     CLEAR     57  41  54 N13       29.91R
GRANITE FALLS  CLEAR     55  39  56 NW9       29.91R
CANBY          CLEAR     53  39  59 NW8       29.92R
MARSHALL       CLEAR     52  36  54 NW9       29.90R
REDWOOD FALLS  CLEAR     60  40  47 NW10      29.87R
OLIVIA         CLEAR     54  41  62 NW8       29.87R
PIPESTONE      CLEAR     57  37  47 N5        29.93R
WINDOM         CLEAR     52  37  58 NW7       29.90S
WORTHINGTON    CLEAR     55  37  50 NW8       29.92S
JACKSON        CLEAR     54  37  54 NW6       29.90S
TRACY          CLEAR     59  40  50 W7        29.90R
SLAYTON        CLEAR     52  37  56 NW8       29.93R
$$
MNZ065>067-074>077-082>085-091>093-200300-
   South Central Minnesota

CITY           SKY/WX    TMP DP  RH WIND       PRES   REMARKS
MANKATO        CLEAR     59  39  47 NW9       29.84F
NEW ULM        CLEAR     54  41  62 W5        29.86R
ST JAMES       CLEAR     54  39  58 W5        29.88S
FAIRMONT       CLEAR     55  39  54 NW8       29.87S
GLENCOE        CLEAR     59  45  58 W9        29.84R
FARIBAULT      CLEAR     55  45  67 W6        29.83S
OWATONNA       CLEAR     57  43  58 W8        29.83S
WASECA         CLEAR     55  37  50 W6        29.85S
ALBERT LEA     CLEAR     57  45  62 W6        29.85R
$$
MNZ078>079-086>088-094>096-200300-
   Southeast Minnesota

CITY           SKY/WX    TMP DP  RH WIND       PRES   REMARKS
ROCHESTER      CLEAR     57  45  64 W12       29.83S
RED WING       CLEAR     50  45  81 NW3       29.78S
STANTON        CLEAR     56  44  61 W7        29.80S
DODGE CENTER   PTCLDY    52  45  76 W8        29.83R
WINONA         CLEAR     55  45  67 CALM      29.79S
AUSTIN         CLEAR     55  46  71 W7        29.84R
PRESTON        CLEAR     55  45  67 SW9       29.82F
$$
ABBREVIATIONS USED IN REMARKS
   TC - TEMPERATURES IN CELSIUS
  WCI - WIND CHILL INDEX
   HX - HEAT INDEX
  VSB - VISIBILITY
$$


USA.gov is the U.S. government's official web portal to all federal, state and local government web resources and services.